Location: Canterbury
(51.2667°N, 1.0833°E)
Time: 06:27:51
(UTC+00:00)

Daily predictions for brighter satellites

Satellite Brightness Start Highest point End
(mag) Time Altitude Azimuth Time Altitude Azimuth Time Altitude Azimuth
ERBS 4.1 19:48:54 10° WNW 19:51:53 29° N 19:54:51 10° ENE
Cosmos 1707 Rocket 3.7 19:48:09 10° NNW 19:52:31 81° W 19:56:49 10° S
CZ-2C R/B 2.6 19:48:20 10° NNE 19:53:32 69° ESE 19:58:46 10° S
ARGOS 4.3 19:49:31 10° S 19:54:39 45° W 19:59:49 10° NNW
Cosmos 192 4.4 19:50:08 10° NNW 19:55:05 87° WSW 20:00:01 10° SSE
Cosmos 2219 Rocket 4.2 19:52:41 10° N 19:56:19 17° NNE 19:59:57 10° ENE
NOSS 3-2 (A) 3.6 19:50:55 10° SSW 19:56:25 49° ESE 20:02:42 10° NE
USA 267 4.4 19:53:27 10° E 19:57:50 19° ESE 20:02:11 10° SSE
SL-16 R/B 2.6 19:55:12 10° NNW 20:00:45 51° NE 20:06:17 10° SE
SL-4 R/B 1.8 19:58:13 10° WSW 20:02:18 83° SSE 20:06:03 10° E
BREEZE-M DEB (TANK) 2.3 20:00:54 10° WSW 20:03:22 57° SSE 20:08:48 10° E
MONITOR-E 4.3 20:02:15 10° S 20:04:32 50° W 20:06:51 10° NNW
Cosmos 2242 Rocket 4.3 20:00:42 10° N 20:04:50 37° ENE 20:08:56 10° SE
SL-27 R/B 4.1 20:04:36 10° SE 20:06:28 14° E 20:08:19 10° ENE
NOSS 3-2 (C) 3.8 20:01:58 10° S 20:07:13 38° ESE 20:13:09 10° NE
Cosmos 1470 Rocket 4.0 20:03:55 10° SSE 20:08:03 42° E 20:12:10 10° NNE
Sich 1 3.6 20:04:26 10° SSW 20:08:51 66° WNW 20:13:17 10° N
BREEZE-M DEB (TANK) 1.9 20:07:36 10° W 20:10:48 56° S 20:12:31 12° ESE
Cosmos 2082 Rocket 2.3 20:06:09 10° SSW 20:11:51 90° ESE 20:17:34 10° NNE
USA 186 4.1 20:12:14 10° SW 20:13:29 14° W 20:14:45 10° WNW
Meteor 2-20 Rocket 4.5 20:07:34 10° N 20:13:48 83° E 20:19:57 10° SSE
Meteor 1-4 Rocket 3.3 20:13:09 10° NNW 20:16:32 50° W 20:19:52 10° S
Cosmos 2322 Rocket 2.5 20:12:30 10° NNW 20:18:07 56° NE 20:23:14 12° SE
ERS-1 Rocket 4.1 20:16:14 11° ESE 20:20:17 30° ENE 20:24:37 10° N
Cosmos 1862 Rocket 3.6 20:15:50 10° NNW 20:20:19 84° W 20:24:43 10° S
H-2A R/B 4.5 20:17:03 10° SW 20:20:53 21° W 20:24:41 10° NW
Cosmos 1850 Rocket 4.5 20:19:43 10° S 20:24:37 39° ESE 20:29:30 10° NE
Cosmos 841 Rocket 4.0 20:20:38 10° NNW 20:25:40 46° ENE 20:29:56 14° SE
Meteor 1-25 Rocket 4.3 20:21:07 10° S 20:26:37 61° E 20:32:12 10° NNE
Cosmos 2360 Rocket 3.0 20:21:50 10° NNW 20:27:11 40° NE 20:31:48 13° ESE
Cosmos 676 Rocket 4.1 20:22:02 10° SSW 20:27:22 88° WNW 20:32:46 10° NNE
USA 276 2.7 20:25:03 10° W 20:28:05 44° SSW 20:30:11 18° SE
SPOT 1/Viking Rocket 4.0 20:23:32 12° SE 20:28:06 48° ENE 20:33:08 10° N
Meteor 1-18 Rocket 4.3 20:22:57 10° N 20:28:32 66° ENE 20:33:52 11° SSE
X-37B 2.3 20:26:21 10° WSW 20:28:48 21° SSW 20:30:22 15° SSE
USA 32 4.0 20:24:11 10° S 20:29:22 67° E 20:34:34 10° N
Terra 3.3 20:27:56 12° ESE 20:31:11 24° ENE 20:34:58 10° N
ATLAS 3B R/B 3.6 20:27:30 10° SSE 20:32:35 24° ESE 20:37:41 10° ENE
IGS 5A 3.6 20:29:39 13° SSE 20:33:10 56° ENE 20:37:17 10° N
Cosmos 1238 Rocket 2.2 20:30:40 10° S 20:33:32 54° E 20:36:34 10° NNE
Cosmos 468 Rocket 4.1 20:29:25 10° NNW 20:34:46 83° WSW 20:39:43 12° SSE
CZ-2C R/B 3.8 20:30:34 10° NNE 20:35:11 85° WNW 20:39:41 10° SSW
USA 234 3.5 20:29:20 10° E 20:35:49 68° NNE 20:42:19 10° WNW
Cosmos 1980 Rocket 3.6 20:30:50 10° NW 20:35:58 36° WSW 20:41:02 10° S
Cosmos 44 3.4 20:31:38 10° NW 20:36:32 86° NE 20:40:36 17° SE
Lacrosse 5 2.5 20:33:00 10° WNW 20:37:51 46° SW 20:41:50 15° SSE
Cosmos 1934 Rocket 4.2 20:31:34 10° SSW 20:37:56 78° W 20:44:20 10° N
Resurs 01 Rocket 2.1 20:35:48 10° S 20:40:11 62° W 20:44:36 10° NNW
Cosmos 1602 3.8 20:38:12 10° S 20:42:04 60° E 20:45:58 10° NNE
CARTOSAT-1 4.3 20:40:31 18° SE 20:43:19 39° ENE 20:47:21 10° N
GP-B 3.1 20:39:07 10° N 20:43:36 87° E 20:48:03 10° S
Cosmos 1833 Rocket 4.3 20:42:16 10° WSW 20:47:29 38° NW 20:52:45 10° NNE
Cosmos 1933 Rocket 3.5 20:44:08 10° S 20:48:33 75° E 20:53:01 10° NNE
Cosmos 1867 4.3 20:46:37 10° WSW 20:51:59 58° NW 20:57:24 10° NE
COSMOS 2428 4.1 20:48:33 10° NNW 20:53:25 28° NE 20:57:48 12° E
Cosmos 1814 Rocket 4.2 20:48:15 10° NNW 20:53:25 60° ENE 20:56:56 21° SE
Cosmos 405 Rocket 2.6 20:51:09 10° SSW 20:54:52 86° WNW 20:58:41 10° NNE
Spot 2 Rocket 3.5 20:51:17 15° SSE 20:55:37 89° ENE 21:00:45 10° NNW
USA 238 DEB 3.7 20:50:12 10° SW 20:56:53 85° NW 21:03:55 10° NE
USA 238 3.7 20:50:18 10° SW 20:56:59 85° NW 21:04:01 10° NE
Cosmos 1515 3.6 20:53:14 10° N 20:57:05 85° E 20:59:36 20° SSE
Cosmos 2237 Rocket 4.3 20:53:39 10° N 20:57:20 17° NNE 21:01:00 10° ENE
Meteor 1-20 Rocket 4.5 20:51:45 10° SSW 20:57:36 79° WNW 21:03:30 10° N
Okean 1-7 2.9 20:54:35 10° N 20:58:55 81° E 21:01:51 20° SSE
CENTAUR R/B 2.5 20:54:05 10° SSW 21:00:05 73° SE 21:07:17 10° NE
Cosmos 1869 Rocket 4.0 20:57:44 21° SSE 21:00:16 42° E 21:04:30 10° NNE
Cosmos 1741 Rocket 3.9 20:58:12 10° SSW 21:03:26 75° ESE 21:08:45 10° NNE
Cosmos 1437 Rocket 2.8 21:01:02 10° NNW 21:04:50 72° W 21:07:19 20° S
FALCON 9 DEB 3.5 21:03:15 10° W 21:06:44 64° N 21:09:36 14° ENE
OBJECT-B 3.7 21:05:50 10° SW 21:07:47 15° W 21:09:44 10° NW
Cosmos 1763 Rocket 4.2 21:03:48 10° NNW 21:08:59 52° WSW 21:13:14 15° S
Cosmos 1703 Rocket 3.7 21:04:54 10° NNW 21:09:15 73° W 21:12:20 19° S
H-2A R/B 3.5 21:05:50 10° NNE 21:09:59 80° WNW 21:14:07 10° SSW
Cosmos 1570 Rocket 4.1 21:06:09 10° NNW 21:11:31 84° WSW 21:14:57 23° SSE
Cosmos 2333 Rocket 3.1 21:06:17 10° NNW 21:11:42 39° NE 21:15:19 19° ESE
ATLAS 5 CENTAUR R/B 2.0 21:09:52 10° NW 21:12:15 57° NE 21:14:58 22° ESE
Cosmos 2084 Rocket 3.3 21:09:58 10° SW 21:14:10 83° SE 21:18:30 10° NE
SWARM C 4.4 21:14:11 10° N 21:17:31 76° E 21:18:42 37° SSE
SWARM A 4.1 21:14:16 10° N 21:17:37 84° E 21:18:54 35° S
Landsat 7 4.3 21:15:20 16° S 21:19:04 57° W 21:23:47 10° NNW
SPOT 5 2.6 21:17:39 29° SSE 21:19:50 73° ENE 21:24:19 10° NNW
Meteor 1-5 Rocket 4.4 21:18:35 20° SSE 21:22:36 58° E 21:28:23 10° NNE
Cosmos 2208 Rocket 4.0 21:17:45 10° NNW 21:23:02 81° WSW 21:25:58 27° SSE
ERBS 3.3 21:25:33 10° NW 21:28:43 40° NNE 21:30:13 24° ENE
Cosmos 1733 Rocket 4.0 21:29:41 28° ESE 21:30:20 30° E 21:34:12 10° NNE
Cosmos 1356 4.2 21:30:29 34° E 21:30:29 34° E 21:33:31 10° NNE
Meteor 1-11 Rocket 4.1 21:31:46 29° SSE 21:34:22 49° E 21:39:57 10° NNE
Tsikada Rocket 4.3 21:29:33 10° N 21:35:45 52° ENE 21:38:45 29° SE
Lacrosse 4 Rocket 2.1 21:37:37 35° ESE 21:37:37 35° ESE 21:41:13 10° NE
GENESIS II 4.2 21:36:09 10° NW 21:40:11 80° NE 21:41:16 47° SE
SL-27 R/B 3.4 21:37:59 10° SW 21:41:12 45° WNW 21:44:25 10° NNE
Meteor 2-4 Rocket 4.0 21:35:42 10° NNW 21:41:15 63° W 21:44:40 23° S
Cosmos 2219 Rocket 2.6 21:36:04 10° NNW 21:41:39 52° NE 21:44:23 29° ESE
Cosmos 2100 Rocket 3.9 21:36:57 18° S 21:41:42 88° E 21:47:54 10° N
Cosmos 540 Rocket 4.0 21:36:40 10° NNW 21:41:42 52° WSW 21:44:28 25° S
USA 267 3.2 21:35:23 10° ENE 21:41:50 58° SE 21:48:16 10° SW
SL-4 R/B 1.6 21:38:03 10° W 21:41:56 89° NNE 21:42:58 45° E
SL-16 R/B 3.4 21:39:38 10° NW 21:44:42 34° WSW 21:48:20 17° SSW
Cosmos 2173 Rocket 3.9 21:41:11 20° S 21:45:41 88° E 21:51:50 10° N
NOSS 3-2 (A) 4.4 21:41:29 10° WSW 21:47:19 51° NNW 21:54:04 10° NE
Cosmos 1242 Rocket 2.7 21:46:55 10° N 21:50:32 57° ENE 21:50:53 53° ESE
SAR-Lupe-2 3.5 21:49:31 10° NNE 21:53:07 81° WNW 21:54:04 47° SSW
Meteor 1-23 Rocket 4.4 21:49:06 10° N 21:54:55 66° ENE 21:57:14 37° SE
Cosmos 2322 3.6 21:49:24 10° NNW 21:55:08 84° ENE 21:57:25 38° SE
NOSS 3-2 (C) 4.0 21:51:57 10° WSW 21:57:50 60° NW 22:04:40 10° NE
Cosmos 1725 Rocket 4.0 21:55:18 32° SSE 21:58:17 66° E 22:04:34 10° NNE
Cosmos 1459 Rocket 4.1 21:53:46 18° SSW 21:58:35 78° W 22:05:01 10° N
ERS-1 Rocket 3.7 21:56:14 25° SSW 21:58:54 48° W 22:03:47 10° NNW
Cosmos 2346 Rocket 4.4 21:54:31 10° N 22:00:36 83° W 22:03:31 33° S
Meteor 1-13 Rocket 4.3 21:55:18 10° NNW 22:00:48 69° W 22:03:23 32° S
Cosmos 1833 4.1 21:58:11 29° S 22:01:05 66° ESE 22:06:43 10° NE
Cosmos 2322 Rocket 3.5 21:56:58 10° NW 22:01:55 31° WSW 22:05:03 19° SSW
Cosmos 1500 4.1 22:00:27 24° SW 22:02:18 44° WNW 22:05:56 10° N
SL-08 R/B 4.4 21:59:40 33° S 22:02:29 71° E 22:08:35 10° NNE
Cosmos 1536 2.7 22:03:04 63° SE 22:03:31 70° E 22:07:29 10° NNE
Cosmos 1378 Rocket 3.9 21:59:45 10° N 22:04:06 50° ENE 22:04:52 45° ESE
Cosmos 2221 Rocket 3.8 21:59:41 10° NNW 22:04:09 66° W 22:05:37 40° SSW
Cosmos 2016 Rocket 4.0 22:02:21 28° S 22:05:56 86° E 22:12:22 10° N
JB-3 4.3 22:02:34 10° NNE 22:06:39 70° ESE 22:07:09 61° SSE
Okean 3 4.2 22:03:00 10° NNW 22:07:10 49° W 22:08:39 34° SSW
Terra 2.2 22:06:49 35° SSW 22:08:36 57° W 22:13:20 10° NNW
Cosmos 2333 4.2 22:04:13 10° NNW 22:10:02 79° WSW 22:12:06 42° SSE
Cosmos 2360 Rocket 2.9 22:05:55 10° NW 22:11:18 45° WSW 22:13:33 30° SSW
COSMOS 2487 2.5 22:12:28 65° NE 22:12:28 65° NE 22:15:30 10° NNE
Cosmos 1666 2.7 22:12:27 61° SW 22:12:59 74° W 22:16:46 10° N
SL-16 R/B 4.2 22:08:48 10° NNW 22:13:05 21° NE 22:17:21 10° E
USA 234 3.3 22:16:21 37° SSE 22:18:56 62° SW 22:25:26 10° WNW
Lacrosse 5 4.3 22:19:13 10° WSW 22:19:44 10° WSW 22:20:14 10° SW
Iridium 4 Rocket 3.7 22:18:30 32° SW 22:20:01 48° W 22:24:04 10° N
Cosmos 1864 Rocket 4.4 22:17:15 33° S 22:20:18 89° W 22:26:39 10° N
Cosmos 1378 3.1 22:17:36 10° N 22:21:16 70° ENE 22:21:16 70° ENE
MOS 1-B Rocket 3.9 22:16:11 10° NNE 22:21:43 57° E 22:23:10 44° SSE
ATLAS 3B R/B 2.5 22:15:52 10° SW 22:22:28 89° NW 22:29:12 10° NE
Cosmos 1975 Rocket 4.1 22:22:43 10° N 22:26:47 32° ENE 22:27:17 31° E
Cosmos 2297 Rocket 4.0 22:32:12 16° E 22:32:12 16° E 22:34:59 10° ENE
Okean 2 3.9 22:30:28 10° N 22:34:27 46° ENE 22:34:29 46° ENE
Thor Agena Rocket 3.9 22:29:45 10° NNE 22:34:40 45° E 22:35:03 45° ESE
Cosmos 1743 3.0 22:35:21 57° ENE 22:35:21 57° ENE 22:38:48 10° NNE
Cosmos 1980 4.2 22:29:22 10° NNW 22:34:57 52° NE 22:36:58 35° ESE
Cosmos 1975 4.1 22:36:14 29° ENE 22:36:14 29° ENE 22:39:11 10° NNE
Cosmos 2233 Rocket 3.9 22:34:08 42° S 22:36:25 80° E 22:42:47 10° NNE
COSMOS 2428 2.7 22:32:34 10° NNW 22:38:20 77° WSW 22:39:48 51° S
Cosmos 2061 Rocket 4.4 22:35:41 25° SSW 22:39:22 59° WNW 22:45:30 10° N
Cosmos 44 Rocket 3.4 22:37:24 10° NW 22:42:20 61° SW 22:42:56 56° SSW
Cosmos 2237 Rocket 2.6 22:37:10 10° NNW 22:42:44 55° NE 22:44:35 38° ESE
FALCON 9 DEB 4.2 22:40:26 10° WNW 22:42:51 42° WNW 22:42:51 42° WNW
Cosmos 1271 Rocket 2.8 22:40:55 10° NNW 22:44:31 70° WNW 22:44:31 70° WNW
Cosmos 783 Rocket 4.5 22:41:54 10° NNW 22:47:12 78° ENE 22:48:13 58° SE
NOSS 0 Rocket 3.9 22:43:40 10° NNW 22:49:57 85° NE 22:51:50 49° SE
Cosmos 1674 Rocket 4.1 22:46:20 10° NNW 22:50:31 47° W 22:51:00 45° WSW
CENTAUR R/B 3.9 22:45:10 10° W 22:51:20 44° NNW 22:58:35 10° NE
Cosmos 2333 Rocket 2.7 22:50:36 10° NW 22:56:08 49° WSW 22:57:19 43° SW
Geosat 3.9 22:58:12 65° SSE 22:58:56 82° WSW 23:04:01 10° NNW
Cosmos 1503 Rocket 3.9 22:58:15 63° SSE 22:59:00 74° ESE 23:04:21 10° NNE
Cosmos 1486 Rocket 4.3 23:02:24 39° SW 23:04:13 65° WNW 23:09:26 10° NNE
ERBS 4.4 23:01:51 10° WNW 23:03:07 21° WNW 23:03:07 21° WNW
Cosmos 1733 Rocket 4.4 23:06:45 28° WSW 23:08:04 34° WNW 23:12:09 10° N
Meteor 2-11 Rocket 4.4 23:06:27 50° SSW 23:08:12 85° W 23:14:21 10° N
DNEPR-1 R/B 4.1 23:07:31 10° NW 23:13:39 77° NE 23:14:43 57° ESE
Sich 1 Rocket 4.2 23:15:13 44° ENE 23:15:13 44° ENE 23:18:59 10° NNE
Lacrosse 4 Rocket 2.8 23:13:52 21° W 23:16:03 36° NW 23:19:57 10° NNE
ALOS 2 2.5 23:17:00 87° WNW 23:17:00 87° WNW 23:21:23 10° NNW
Cosmos 773 Rocket 3.8 23:11:57 10° NNW 23:17:08 89° WSW 23:17:38 73° SSE
Helios 1A 3.8 23:18:09 41° ENE 23:18:15 41° ENE 23:22:15 10° N
Cosmos 968 Rocket 3.9 23:17:24 39° WSW 23:19:04 57° WNW 23:24:09 10° NNE
Cosmos 2034 Rocket 4.3 23:19:27 45° SE 23:20:42 52° E 23:26:50 10° NNE
SL-4 R/B 4.2 23:17:51 10° W 23:18:32 14° W 23:18:32 14° W
Cosmos 2227 Rocket 3.1 23:22:00 33° ESE 23:22:00 33° ESE 23:26:47 10° NE
Cosmos 1072 Rocket 4.4 23:20:37 57° SSE 23:21:54 76° E 23:28:02 10° NNE
Cosmos 1707 3.5 23:18:26 10° N 23:21:46 46° NE 23:21:46 46° NE
Cosmos 1891 Rocket 4.5 23:21:56 54° SSE 23:23:29 76° E 23:29:52 10° NNE
USA 267 3.5 23:18:30 10° ENE 23:25:01 70° NNW 23:31:30 10° WSW
Cosmos 2219 Rocket 3.1 23:20:22 10° NW 23:25:25 33° WSW 23:26:05 32° WSW
EO 1 Del DPAF 3.7 23:24:58 10° N 23:28:11 57° NNW 23:28:11 57° NNW
Cosmos 1536 Rocket 4.4 23:25:32 10° N 23:29:38 40° ENE 23:29:39 40° ENE
Cosmos 1538 Rocket 3.8 23:29:52 10° NNW 23:35:04 85° ENE 23:35:35 73° SE
Cosmos 1782 Rocket 3.6 23:35:17 72° NW 23:35:17 72° NW 23:39:28 10° N
Cosmos 1842 4.3 23:34:01 10° NNW 23:37:09 40° WNW 23:37:09 40° WNW
Cosmos 1607 3.9 23:39:02 10° NW 23:45:32 88° NE 23:47:26 50° SE
Helios 1B rocket 4.2 23:51:35 10° NE 23:54:18 23° E 23:54:18 23° E
